Roseburg, OR

4:16 AM PDT on September 29, 2016 (GMT -0700)
Roseburg Regional

Weather History for KRBG - August, 2014

Change the Weather History Date:

Sunday, August 10, 2014

  Actual Average Record
Temperature  
Mean Temperature 79 °F 71 °F  
Max Temperature 97 °F 86 °F 97 °F (2014)
Min Temperature 60 °F 56 °F 46 °F (1956)
Degree Days  
Heating Degree Days 0 0  
Month to date heating degree days 0 0  
Since 1 June heating degree days 42 94  
Since 1 July heating degree days 7 11  
Cooling Degree Days 14 6  
Month to date cooling degree days 107 63  
Year to date cooling degree days 531 306  
Since 1 June cooling degree days 486 286  
Growing Degree Days 30 (Base 50)    
Moisture  
Dew Point 52 °F    
Average Humidity 47    
Maximum Humidity 69    
Minimum Humidity 24    
Precipitation  
Precipitation 0.00 in 0.02 in 0.18 in (1991)
Month to date precipitation 0.00 0.08  
Year to date precipitation 16.62 19.26  
Sea Level Pressure  
Sea Level Pressure 29.95 in    
Wind  
Wind Speed 4 mph (North)    
Max Wind Speed 14 mph    
Max Gust Speed 16 mph    
Visibility 10 miles    
Events      
T = Trace of Precipitation, MM = Missing Value Source: NWS Daily Summary

Daily Weather History Graph

Daily Weather History Graph

Search for Another Location

Airport or City:

Trip Planner

Search our weather history database for the weather conditions in past years. The results will help you decide how hot, cold, wet, or windy it might be!

Date:

Astronomy

Aug. 10, 2014 Rise Set
Actual Time 6:13 AM PDT 8:23 PM PDT
Civil Twilight 5:42 AM PDT 8:54 PM PDT
Nautical Twilight 5:03 AM PDT 9:32 PM PDT
Astronomical Twilight 4:20 AM PDT 10:15 PM PDT
Moon 8:11 PM PDT (8/10) 6:14 AM PDT (8/10)
Length of Visible Light 15h 12m
Length of Day
14h 09m
Full, 100% of the Moon is Illuminated
Aug 10
Full
Aug 17
Last Quarter
Aug 25
New
Sep 2
First Quarter
Sep 8
Full

Hourly Weather History & Observations

Time (PDT) Temp. Heat Index Dew Point Humidity Pressure Visibility Wind Dir Wind Speed Gust Speed Precip Events Conditions
12:53 AM 71.1 °F - 50.0 °F 47% 29.99 in 10.0 mi Calm Calm - N/A   Clear
2:53 AM 72.0 °F - 52.0 °F 49% 29.99 in 10.0 mi NNE 3.5 mph - N/A   Clear
3:53 AM 70.0 °F - 52.0 °F 53% 29.99 in 10.0 mi Calm Calm - N/A   Clear
4:53 AM 63.0 °F - 51.1 °F 65% 30.00 in 10.0 mi Calm Calm - N/A   Clear
5:53 AM 62.1 °F - 50.0 °F 65% 30.00 in 10.0 mi Calm Calm - N/A   Clear
7:53 AM 64.9 °F - 51.1 °F 61% 30.02 in 10.0 mi Calm Calm - N/A   Clear
8:53 AM 69.1 °F - 52.0 °F 54% 30.02 in 10.0 mi North 4.6 mph - N/A   Clear
9:53 AM 73.0 °F - 52.0 °F 48% 30.01 in 10.0 mi Calm Calm - N/A   Clear
10:53 AM 75.0 °F - 53.1 °F 46% 30.00 in 10.0 mi SSW 3.5 mph - N/A   Clear
11:53 AM 80.1 °F 79.9 °F 53.1 °F 39% 29.99 in 10.0 mi WNW 4.6 mph - N/A   Clear
12:53 PM 82.0 °F 81.3 °F 54.0 °F 38% 29.97 in 10.0 mi NNW 5.8 mph - N/A   Clear
1:53 PM 88.0 °F 85.7 °F 53.1 °F 30% 29.94 in 10.0 mi ENE 4.6 mph - N/A   Clear
2:53 PM 91.9 °F - 52.0 °F 26% 29.91 in 10.0 mi North 10.4 mph - N/A   Clear
3:53 PM 91.9 °F - 52.0 °F 26% 29.89 in 10.0 mi North 6.9 mph - N/A   Clear
4:53 PM 96.1 °F 93.5 °F 53.1 °F 23% 29.87 in 10.0 mi North 6.9 mph - N/A   Clear
5:53 PM 97.0 °F 94.6 °F 53.1 °F 23% 29.85 in 10.0 mi North 11.5 mph - N/A   Clear
6:53 PM 95.0 °F 92.5 °F 53.1 °F 24% 29.87 in 10.0 mi NNW 10.4 mph - N/A   Clear
7:53 PM 91.9 °F - 51.1 °F 25% 29.87 in 10.0 mi North 9.2 mph - N/A   Clear
9:53 PM 87.1 °F - 50.0 °F 28% 29.88 in 10.0 mi North 3.5 mph - N/A   Clear
10:53 PM 82.0 °F - 52.0 °F 35% 29.89 in 10.0 mi NNE 3.5 mph - N/A   Clear
11:53 PM 78.1 °F - 53.1 °F 42% 29.90 in 10.0 mi Calm Calm - N/A   Clear